Miscellaneous Local Product
Issued by NWS North Platte, NE

Home | Current Version | Previous Version | Graphics & Text | Print | Product List | Glossary On
Versions: 1 2 3 4 5 6 7 8 9 10 11 12 13 14 15 16 17 18 19 20 21 22 23 24 25 26 27 28 29 30 31 32 33 34 35 36 37 38 39 40 41 42 43 44 45 46 47 48 49 50
043
AXUS43 KLBF 021210
MISLBF


WESTERN AND NORTH CENTRAL NEBRASKA HOURLY WEATHER ROUNDUP
NATIONAL WEATHER SERVICE NORTH PLATTE NE
700 AM CDT MON MAY 02 2016

NOTE: "FAIR" INDICATES FEW OR NO CLOUDS BELOW 12,000 FEET WITH NO
SIGNIFICANT WEATHER AND/OR OBSTRUCTIONS TO VISIBILITY.

NOTE: STATIONS NOT REPORTING VARIABLES SUCH AS SKY/WEATHER OR
PRESSURE ARE PROVIDED BY RAWS AND APRS NETWORKS AND ARE NOT UNDER
NATIONAL WEATHER SERVICE QUALITY CONTROL.

...OBSERVATIONS IN AND NEAR THE EASTERN PANHANDLE OF NEBRASKA...

CITY           SKY/WX    TMP DP  RH WIND       PRES   REMARKS
PINE RIDGE     CLEAR     25  21  85 CALM      30.18F
CHADRON        CLEAR     30  27  88 SW6       30.20F WCI  24
ALLIANCE       CLEAR     22  20  92 W8        30.19F WCI  12
SIDNEY         CLEAR     28  23  81 W13       30.22S WCI  17
CRESCENT LAKE    N/A     29  26  87 W6          N/A  WCI  23
BIG SPRINGS      N/A     32  30  92 W8          N/A  WCI  25
$$

...OBSERVATIONS IN NORTHERN NEBRASKA AND FAR SOUTHERN SOUTH DAKOTA...

CITY           SKY/WX    TMP DP  RH WIND       PRES   REMARKS
WINNER         FAIR      41  31  67 SW3       30.15F
VALENTINE      CLEAR     31  28  89 SW9       30.17F WCI  23
THEDFORD         N/A     29  28  96 SW3       30.19F
AINSWORTH      CLEAR     34  31  88 W3        30.17S
O`NEILL        CLEAR     37  33  85 W6        30.16S WCI  32
ORD            CLEAR     32  30  92 NW5       30.17R WCI  27
BROKEN BOW     CLEAR     37  31  78 NW5       30.18S WCI  33
VALENTINE NWR    N/A     35  31  85 W6          N/A  WCI  30
BUTTE            N/A     38  32  79 SW3         N/A
HALSEY           N/A     30  28  94 CALM        N/A
CHAMBERS         N/A     38  34  85 W3          N/A
EWING            N/A     35  34  95 CALM        N/A
$$

...OBSERVATIONS IN SOUTHWEST NEBRASKA AND FAR NORTHEAST COLORADO...

CITY           SKY/WX    TMP DP  RH WIND       PRES   REMARKS
HOLYOKE        FAIR      34  30  86 W8        30.22S WCI  27
IMPERIAL       CLEAR     33  28  81 W7        30.22S WCI  27
OGALLALA       CLEAR     30  27  88 W7        30.22S WCI  23
NORTH PLATTE   CLEAR     26  25  96 NW3       30.20S
MCCOOK         CLEAR     33  30  88 W3        30.21S
LEXINGTON      CLEAR     32  31  94 NW5       30.20R WCI  28
PAXTON           N/A     32  30  92 W3          N/A
STAPLETON        N/A     30  28  92 CALM        N/A
GOTHENBURG       N/A     33  30  89 NW5         N/A  WCI  28
CALLAWAY         N/A     34  31  89 NW6         N/A  WCI  29
$$

...OBSERVATIONS IN CENTRAL LINCOLN COUNTY AREA...

CITY           SKY/WX    TMP DP  RH WIND       PRES   REMARKS
N.P. AIRPORT   CLEAR     26  25  96 NW3       30.20S
N.P. DOWNTOWN    N/A     33  31  94 CALM        N/A
N.P. HILLCREST   N/A     32  30  92 NW3         N/A
$$

...SOME OBSERVATIONS FROM AROUND THE REGION...

CITY           SKY/WX    TMP DP  RH WIND       PRES   REMARKS
DENVER         PTCLDY    29  22  75 SW7       30.24S WCI  22
LARAMIE        CLOUDY    14  11  87 S6        30.24S WCI   5
CHEYENNE       CLOUDY    26  19  74 W10       30.22F WCI  16
SCOTTSBLUFF    CLEAR     31  27  85 NW8       30.22F WCI  23
RAPID CITY     CLEAR     36  29  75 W10       30.15F WCI  28
BISMARCK       CLOUDY    45  38  76 NE8       30.06R
PIERRE         PTCLDY    38  33  82 SW7       30.12F WCI  33
SIOUX FALLS    PTCLDY    34  33  96 CALM      30.14R
OMAHA          MOCLDY    45  42  89 N5        30.14R
GRAND ISLAND   CLEAR     36  33  89 W8        30.18R WCI  30
KANSAS CITY    CLOUDY    48  44  86 N8        30.10S
WICHITA        CLOUDY    48  43  82 N13       30.15S
OKLAHOMA CITY  PTCLDY    47  43  86 N10       30.16R
DALLAS         TSTM      54  50  86 N14       30.09S
AMARILLO       CLEAR     34  33  96 W8        30.24S WCI  27
DODGE CITY     CLOUDY    38  36  92 NW8       30.20S WCI  32
HAYS           CLEAR     37  28  70 NW6       30.20R WCI  33
GOODLAND       CLEAR     29  25  85 W9        30.22S WCI  20
$$




USA.gov is the U.S. government's official web portal to all federal, state and local government web resources and services.